Weather in Kostino

Russia / Vladimir Oblast     55°59′15″N   39°21′29″E
temp.,
°C
wind,
m/s
gust,
m/s
humid.,
%
clouds,
%
prec.,
mm/h
press.,
hPa
HPBL,
m
5 march, fri
fri500:00−8nw2294100 0.0 100151
03:00−8nw2496100 0.1 1003106
06:00−10wnw239785 0.1 100559
09:00−7w369381 0.1 1006256
12:00−3wnw478099 0.1 10071046
15:00−3wnw587099 0.4 10081504
18:00−7wnw3683100 0.3 1010138
21:00−10nw238962 0.3 101325
6 march, sat
sat600:00−12nw11910 0.0 101421
03:00−13w12930 0.0 101620
06:00−13wnw22940 0.0 101521
09:00−10w23930 0.0 1016145
12:00−6wnw248461 0.1 1016719
15:00−5nw347680 0.6 1015970
18:00−8nw228696 0.3 101421
21:00−11wsw229265 0.3 101421
7 march, sun
sun700:00−13sw23940 0.0 101269
03:00−12ssw410936 0.0 1009266
06:00−9ssw5139398 0.1 1004616
09:00−6ssw7149199 0.9 1001811
12:00−5ssw71492100 1.6 9951162
15:00−3ssw61294100 4.3 9911027
18:00−5wnw51489100 3.3 9901149
21:00−7w61477100 3.4 9921043
8 march, mon
mon800:00−7wsw5128945 0.2 993928
03:00−9wsw3109372 0.2 993353
06:00−9w249799 0.3 993132
09:00−9wnw41079100 0.3 994534
12:00−8wnw598679 0.0 996776
15:00−6wnw598989 0.4 999890
18:00−8nw41088100 0.3 1001735
21:00−10nw4118996 0.4 1005565
9 march, tue
tue900:00−13nw3109483 0.0 1007338
03:00−15nw3109482 0.0 1010336
06:00−17nw3109498 0.0 1012347
09:00−17nw489195 0.0 1014385
12:00−14nw368596 0.0 1016553
15:00−12nw368193 0.0 1016752
18:00−15nw249189 0.0 101780
21:00−18nnw129571 0.0 101820